• In Belgium
  • List of Countries
  • For 7 days
  • Water Temperature
  • Satellite Maps
  • Weather Map
  • Weather Widgets
  • user-avatar
    Login

    Hourly Weather SanFrancisco

    Today, 25 April, Wednesday

    Time Temperature Precipitation Wind Pressure Humidity
    00:00 +26°C° 0 mm 4 mps 709 mmHg 74%
    01:00 +25°C° 0 mm 4 mps 709 mmHg 76%
    02:00 +25°C° 0 mm 3 mps 709 mmHg 78%
    03:00 +25°C° 0 mm 3 mps 709 mmHg 79%
    04:00 +25°C° 0 mm 3 mps 708 mmHg 80%
    05:00 +25°C° 0 mm 3 mps 709 mmHg 78%
    06:00 +25°C° 0 mm 3 mps 709 mmHg 76%
    07:00 +26°C° 0 mm 3 mps 709 mmHg 74%
    08:00 +28°C° 0 mm 3 mps 710 mmHg 65%
    09:00 +30°C° 0 mm 4 mps 710 mmHg 56%
    10:00 +33°C° 0 mm 4 mps 711 mmHg 47%
    11:00 +34°C° 0 mm 4 mps 710 mmHg 44%
    12:00 +35°C° 0 mm 4 mps 710 mmHg 40%
    13:00 +36°C° 0 mm 3 mps 709 mmHg 36%
    14:00 +36°C° 0 mm 3 mps 709 mmHg 38%
    15:00 +35°C° 0 mm 4 mps 708 mmHg 40%
    16:00 +34°C° 0 mm 4 mps 707 mmHg 42%
    17:00 +33°C° 0.1 mm 4 mps 708 mmHg 48%
    18:00 +30°C° 0.1 mm 4 mps 708 mmHg 54%
    19:00 +29°C° 0.1 mm 4 mps 708 mmHg 60%
    20:00 +28°C° 0 mm 4 mps 708 mmHg 64%
    21:00 +28°C° 0 mm 4 mps 708 mmHg 68%
    22:00 +27°C° 0 mm 4 mps 709 mmHg 73%
    23:00 +26°C° 0 mm 4 mps 708 mmHg 75%

    Tomorrow, 26 April, Thursday

    Time Temperature Precipitation Wind Pressure Humidity
    00:00 +26°C° 0 mm 4 mps 708 mmHg 77%
    01:00 +25°C° 0 mm 3 mps 708 mmHg 79%
    02:00 +25°C° 0 mm 3 mps 708 mmHg 80%
    03:00 +25°C° 0 mm 3 mps 707 mmHg 82%
    04:00 +24°C° 0 mm 3 mps 707 mmHg 83%
    05:00 +25°C° 0 mm 3 mps 708 mmHg 80%
    06:00 +25°C° 0 mm 3 mps 708 mmHg 78%
    07:00 +26°C° 0 mm 3 mps 709 mmHg 76%
    08:00 +28°C° 0 mm 3 mps 709 mmHg 66%
    09:00 +30°C° 0 mm 4 mps 710 mmHg 56%
    10:00 +33°C° 0 mm 4 mps 710 mmHg 46%
    11:00 +34°C° 0 mm 4 mps 710 mmHg 43%
    12:00 +36°C° 0 mm 4 mps 709 mmHg 39%
    13:00 +37°C° 0 mm 3 mps 709 mmHg 35%
    14:00 +36°C° 0 mm 3 mps 708 mmHg 37%
    15:00 +35°C° 0 mm 3 mps 707 mmHg 39%
    16:00 +35°C° 0 mm 3 mps 707 mmHg 42%
    17:00 +33°C° 0.1 mm 3 mps 707 mmHg 48%
    18:00 +31°C° 0.1 mm 3 mps 707 mmHg 55%
    19:00 +29°C° 0.1 mm 3 mps 708 mmHg 61%
    20:00 +29°C° 0 mm 3 mps 708 mmHg 65%
    21:00 +28°C° 0 mm 3 mps 709 mmHg 68%
    22:00 +27°C° 0 mm 3 mps 709 mmHg 71%
    23:00 +27°C° 0 mm 3 mps 709 mmHg 73%

    Day after tomorrow, 27 April, Friday

    Time Temperature Precipitation Wind Pressure Humidity
    00:00 +26°C° 0 mm 3 mps 708 mmHg 75%
    01:00 +26°C° 0 mm 3 mps 707 mmHg 77%
    02:00 +26°C° 0 mm 3 mps 707 mmHg 79%
    03:00 +25°C° 0 mm 3 mps 707 mmHg 80%
    04:00 +25°C° 0 mm 3 mps 707 mmHg 82%
    05:00 +25°C° 0 mm 4 mps 708 mmHg 80%
    06:00 +26°C° 0 mm 4 mps 708 mmHg 79%
    07:00 +26°C° 0 mm 4 mps 709 mmHg 77%
    08:00 +28°C° 0.2 mm 4 mps 709 mmHg 70%
    09:00 +29°C° 0.2 mm 4 mps 710 mmHg 63%
    10:00 +32°C° 0.2 mm 4 mps 710 mmHg 56%
    11:00 +33°C° 0.4 mm 4 mps 710 mmHg 53%
    12:00 +34°C° 0.4 mm 4 mps 709 mmHg 50%
    13:00 +34°C° 0.4 mm 4 mps 709 mmHg 47%
    14:00 +33°C° 1 mm 4 mps 708 mmHg 51%
    15:00 +31°C° 1 mm 3 mps 708 mmHg 56%
    16:00 +30°C° 1 mm 3 mps 707 mmHg 60%
    17:00 +29°C° 1 mm 3 mps 708 mmHg 64%
    18:00 +28°C° 1 mm 3 mps 708 mmHg 68%
    19:00 +27°C° 1 mm 2 mps 708 mmHg 72%
    20:00 +27°C° 0.1 mm 2 mps 709 mmHg 72%
    21:00 +27°C° 0.1 mm 2 mps 709 mmHg 73%
    22:00 +27°C° 0.1 mm 2 mps 709 mmHg 73%
    23:00 +26°C° 0 mm 2 mps 709 mmHg 74%

    28 April, Saturday

    Time Temperature Precipitation Wind Pressure Humidity
    00:00 +26°C° 0 mm 2 mps 709 mmHg 75%
    01:00 +26°C° 0 mm 2 mps 708 mmHg 77%
    02:00 +25°C° 0 mm 2 mps 708 mmHg 78%
    03:00 +25°C° 0 mm 2 mps 708 mmHg 80%
    04:00 +25°C° 0 mm 2 mps 708 mmHg 82%
    05:00 +25°C° 0 mm 2 mps 709 mmHg 81%
    06:00 +25°C° 0 mm 2 mps 709 mmHg 80%
    07:00 +26°C° 0 mm 3 mps 710 mmHg 80%
    08:00 +28°C° 0 mm 3 mps 710 mmHg 71%
    09:00 +30°C° 0 mm 3 mps 711 mmHg 62%
    10:00 +33°C° 0 mm 3 mps 711 mmHg 53%
    11:00 +33°C° 0.2 mm 3 mps 710 mmHg 51%
    12:00 +34°C° 0.2 mm 3 mps 710 mmHg 49%
    13:00 +34°C° 0.2 mm 3 mps 709 mmHg 46%
    14:00 +33°C° 1.1 mm 3 mps 709 mmHg 52%
    15:00 +31°C° 1.1 mm 3 mps 708 mmHg 58%
    16:00 +30°C° 1.1 mm 3 mps 708 mmHg 64%
    17:00 +29°C° 1.2 mm 3 mps 708 mmHg 69%
    18:00 +28°C° 1.2 mm 3 mps 709 mmHg 74%
    19:00 +27°C° 1.2 mm 3 mps 709 mmHg 80%
    20:00 +26°C° 0.2 mm 3 mps 710 mmHg 82%
    21:00 +26°C° 0.2 mm 3 mps 710 mmHg 84%
    22:00 +26°C° 0.2 mm 3 mps 710 mmHg 86%
    23:00 +25°C° 0.4 mm 3 mps 710 mmHg 86%

    29 April, Sunday

    Time Temperature Precipitation Wind Pressure Humidity
    00:00 +25°C° 0.4 mm 3 mps 709 mmHg 87%
    01:00 +25°C° 0.4 mm 3 mps 709 mmHg 87%
    02:00 +24°C° 0.4 mm 3 mps 709 mmHg 88%
    03:00 +24°C° 0.4 mm 2 mps 709 mmHg 88%
    04:00 +24°C° 0.4 mm 2 mps 709 mmHg 89%
    05:00 +24°C° 0.1 mm 2 mps 709 mmHg 87%
    06:00 +25°C° 0.1 mm 3 mps 710 mmHg 86%
    07:00 +25°C° 0.1 mm 3 mps 710 mmHg 84%
    08:00 +26°C° 0.1 mm 3 mps 711 mmHg 77%
    09:00 +28°C° 0.1 mm 3 mps 711 mmHg 70%
    10:00 +29°C° 0.1 mm 3 mps 711 mmHg 63%
    11:00 +30°C° 0.5 mm 3 mps 711 mmHg 59%
    12:00 +31°C° 0.5 mm 3 mps 710 mmHg 56%
    13:00 +33°C° 0.5 mm 3 mps 709 mmHg 52%
    14:00 +31°C° 1.4 mm 3 mps 709 mmHg 56%
    15:00 +30°C° 1.4 mm 3 mps 709 mmHg 60%
    16:00 +29°C° 1.4 mm 3 mps 708 mmHg 64%
    17:00 +28°C° 1.7 mm 3 mps 709 mmHg 69%
    18:00 +27°C° 1.7 mm 2 mps 709 mmHg 75%
    19:00 +26°C° 1.7 mm 2 mps 710 mmHg 81%
    20:00 +26°C° 0.4 mm 2 mps 710 mmHg 83%
    21:00 +25°C° 0.4 mm 2 mps 710 mmHg 84%
    22:00 +25°C° 0.4 mm 2 mps 710 mmHg 86%
    23:00 +25°C° 0 mm 2 mps 710 mmHg 87%

    30 April, Monday

    Time Temperature Precipitation Wind Pressure Humidity
    00:00 +24°C° 0 mm 3 mps 709 mmHg 88%
    01:00 +24°C° 0 mm 3 mps 709 mmHg 90%
    02:00 +24°C° 0.1 mm 3 mps 709 mmHg 90%
    03:00 +24°C° 0.1 mm 3 mps 709 mmHg 90%
    04:00 +24°C° 0.1 mm 3 mps 709 mmHg 90%
    05:00 +24°C° 0 mm 3 mps 709 mmHg 88%
    06:00 +25°C° 0 mm 3 mps 710 mmHg 86%
    07:00 +25°C° 0 mm 3 mps 710 mmHg 85%
    08:00 +27°C° 0 mm 3 mps 710 mmHg 77%
    09:00 +28°C° 0 mm 3 mps 711 mmHg 69%
    10:00 +30°C° 0 mm 3 mps 711 mmHg 61%
    11:00 +31°C° 0.5 mm 3 mps 710 mmHg 58%
    12:00 +33°C° 0.5 mm 3 mps 710 mmHg 55%
    13:00 +33°C° 0.5 mm 3 mps 709 mmHg 51%
    14:00 +31°C° 1.4 mm 3 mps 709 mmHg 57%
    15:00 +30°C° 1.4 mm 3 mps 708 mmHg 62%
    16:00 +29°C° 1.4 mm 3 mps 708 mmHg 67%
    17:00 +28°C° 2.1 mm 3 mps 708 mmHg 72%
    18:00 +27°C° 2.1 mm 3 mps 709 mmHg 77%
    19:00 +26°C° 2.1 mm 3 mps 709 mmHg 82%
    20:00 +26°C° 0.9 mm 3 mps 709 mmHg 84%
    21:00 +25°C° 0.9 mm 3 mps 709 mmHg 85%
    22:00 +25°C° 0.9 mm 3 mps 710 mmHg 87%
    23:00 +25°C° 0.2 mm 3 mps 709 mmHg 88%
    Show more